Find Starlink 5751

NORAD ID: 55576 Int'l Des: 2023-020 Owner: SPXS Country: US Constellation: starlink operational
LEOCIRCULAR

Live Position

Loading 3D Globe...

About Starlink 5751

Description loading...

Upcoming Passes

Passes for default location (London). Set your location on the main map for personalized predictions.

Altitude History

Loading altitude history...

Two-Line Element Set

1 55576U 23020H 26126.38160345 .00000836 00000-0 39905-4 0 9999
2 55576 43.0025 13.6006 0001327 271.4233 88.6466 15.27574622178033
Epoch: May 6, 2026 • Age: 16 hours

Current Status

Altitude 482.6 km
Velocity 7.63 km/s
Sub-Earth Point 2.07°N, 134.26°E
Launch Date Feb 12, 2023
Age 3.2 years
Type internet

Technical Details

Classification Payload
Mass 305.00 kg
Dry Mass 290.00 kg
Total Mass 305.00 kg
Length 0.20 m
Diameter 2.80 m
Span 9.00 m
Shape Box + pan
Manufacturer SPXS
Bus Type Starlink
Phase Status In Orbit
Owner/State SPXS/US

Most Searched